Вернуться в каталог

STARLINK-32719

АктивенСвязьVLEO
NORAD 62448·PAYLOAD·🇺🇸 United States

Запущен Dec 29, 2024 с Vandenberg Space Force Base

Loading…

Ближайшие Пролёты (ближайшие 24 часа)

TLE

СвежийSource: CelesTrak SupGP

Эпоха: Sep 15, 2026, 03:17 UTC

1 62448C 24251S   26258.13729167 -.00042825  00000+0 -12653-2 0  2586
2 62448  53.1568 172.8534 0001255  76.9579  33.9944 15.34410501    17

Отслеживайте STARLINK-32719 в реальном времени с AllMySat

Download on the App Store